TimeCDT,TemperatureF,Dew PointF,Humidity,Sea Level PressureIn,VisibilityMPH,Wind Direction,Wind SpeedMPH,Gust SpeedMPH,PrecipitationIn,Events,Conditions,WindDirDegrees,DateUTC
5:01 AM,23.0,19.4,86,30.10,10.0,NW,6.9,-,N/A,,Clear,310,2013-04-20 10:01:00
5:21 AM,23.0,19.4,86,30.11,10.0,NW,5.8,-,N/A,,Clear,310,2013-04-20 10:21:00
5:41 AM,23.0,17.6,80,30.11,10.0,WNW,5.8,-,N/A,,Clear,300,2013-04-20 10:41:00
6:01 AM,21.2,17.6,86,30.12,10.0,NW,3.5,-,N/A,,Clear,310,2013-04-20 11:01:00
6:41 AM,21.2,19.4,93,30.14,10.0,WNW,2.3,-,N/A,,Clear,290,2013-04-20 11:41:00
7:01 AM,21.2,19.4,93,30.15,10.0,West,3.5,-,N/A,,Clear,270,2013-04-20 12:01:00
7:21 AM,23.0,19.4,86,30.16,10.0,West,3.5,-,N/A,,Clear,270,2013-04-20 12:21:00
7:41 AM,24.8,19.4,80,30.18,10.0,WNW,2.3,-,N/A,,Clear,290,2013-04-20 12:41:00
8:01 AM,24.8,19.4,80,30.18,10.0,NW,3.5,-,N/A,,Clear,320,2013-04-20 13:01:00
8:21 AM,26.6,19.4,74,30.19,10.0,NW,2.3,-,N/A,,Clear,320,2013-04-20 13:21:00
8:41 AM,26.6,19.4,74,30.21,10.0,West,1.2,-,N/A,,Clear,270,2013-04-20 13:41:00
9:01 AM,28.4,19.4,69,30.21,10.0,NNW,4.6,-,N/A,,Clear,340,2013-04-20 14:01:00
9:21 AM,28.4,19.4,69,30.21,10.0,NNE,3.5,-,N/A,,Clear,30,2013-04-20 14:21:00
9:41 AM,30.2,19.4,64,30.23,10.0,WNW,3.5,-,N/A,,Clear,290,2013-04-20 14:41:00
10:01 AM,30.2,17.6,60,30.23,10.0,Calm,Calm,-,N/A,,Clear,320,2013-04-20 15:01:00
10:21 AM,32.0,19.4,60,30.24,10.0,West,2.3,-,N/A,,Clear,270,2013-04-20 15:21:00
10:41 AM,32.0,19.4,60,30.25,10.0,NE,1.2,-,N/A,,Clear,40,2013-04-20 15:41:00
11:01 AM,33.8,17.6,52,30.26,10.0,SSW,1.2,-,N/A,,Clear,200,2013-04-20 16:01:00
11:41 AM,35.6,15.8,44,30.27,10.0,NW,3.5,-,N/A,,Clear,310,2013-04-20 16:41:00
12:01 PM,35.6,15.8,44,30.27,10.0,West,2.3,-,N/A,,Clear,280,2013-04-20 17:01:00
12:21 PM,35.6,15.8,44,30.27,10.0,NNW,1.2,-,N/A,,Clear,340,2013-04-20 17:21:00
12:41 PM,35.6,12.2,38,30.27,10.0,ESE,1.2,-,N/A,,Clear,110,2013-04-20 17:41:00
1:21 PM,35.6,12.2,38,30.27,10.0,West,2.3,-,N/A,,Clear,280,2013-04-20 18:21:00
1:41 PM,35.6,12.2,38,30.27,10.0,NNE,4.6,-,N/A,,Clear,20,2013-04-20 18:41:00
2:01 PM,35.6,10.4,35,30.27,10.0,Calm,Calm,-,N/A,,Clear,60,2013-04-20 19:01:00
2:21 PM,37.4,15.8,41,30.27,10.0,WSW,2.3,-,N/A,,Clear,250,2013-04-20 19:21:00
2:41 PM,37.4,15.8,41,30.27,10.0,NNE,2.3,-,N/A,,Clear,30,2013-04-20 19:41:00
3:01 PM,37.4,15.8,41,30.27,10.0,SSE,2.3,-,N/A,,Clear,150,2013-04-20 20:01:00
3:21 PM,37.4,15.8,41,30.27,10.0,NNE,1.2,-,N/A,,Clear,30,2013-04-20 20:21:00
3:41 PM,37.4,17.6,45,30.27,10.0,WSW,3.5,-,N/A,,Clear,250,2013-04-20 20:41:00
4:01 PM,39.2,19.4,45,30.27,10.0,West,4.6,-,N/A,,Clear,270,2013-04-20 21:01:00
4:41 PM,39.2,17.6,42,30.26,10.0,SSW,4.6,-,N/A,,Clear,200,2013-04-20 21:41:00
5:01 PM,37.4,15.8,41,30.26,10.0,Calm,Calm,-,N/A,,Clear,180,2013-04-20 22:01:00
5:41 PM,39.2,17.6,42,30.26,10.0,ENE,2.3,-,N/A,,Clear,60,2013-04-20 22:41:00
6:01 PM,39.2,17.6,42,30.26,10.0,NE,1.2,-,N/A,,Clear,40,2013-04-20 23:01:00
6:21 PM,39.2,19.4,45,30.26,10.0,NNE,2.3,-,N/A,,Clear,30,2013-04-20 23:21:00
6:41 PM,37.4,17.6,45,30.25,10.0,North,1.2,-,N/A,,Clear,10,2013-04-20 23:41:00
7:01 PM,37.4,21.2,52,30.25,10.0,NNE,1.2,-,N/A,,Clear,30,2013-04-21 00:01:00
7:21 PM,37.4,21.2,52,30.25,10.0,NE,1.2,-,N/A,,Clear,50,2013-04-21 00:21:00
7:41 PM,37.4,21.2,52,30.25,10.0,ENE,4.6,-,N/A,,Clear,70,2013-04-21 00:41:00
8:01 PM,37.4,23.0,56,30.25,10.0,ENE,3.5,-,N/A,,Clear,70,2013-04-21 01:01:00
8:21 PM,37.4,24.8,60,30.25,10.0,East,3.5,-,N/A,,Clear,80,2013-04-21 01:21:00
8:41 PM,37.4,24.8,60,30.26,10.0,East,3.5,-,N/A,,Clear,90,2013-04-21 01:41:00
9:01 PM,35.6,26.6,70,30.27,10.0,ENE,2.3,-,N/A,,Scattered Clouds,60,2013-04-21 02:01:00
9:21 PM,35.6,24.8,65,30.27,10.0,East,4.6,-,N/A,,Mostly Cloudy,80,2013-04-21 02:21:00
9:41 PM,35.6,24.8,65,30.28,10.0,East,4.6,-,N/A,,Overcast,80,2013-04-21 02:41:00
10:01 PM,35.6,24.8,65,30.28,10.0,East,3.5,-,N/A,,Overcast,90,2013-04-21 03:01:00
10:21 PM,35.6,24.8,65,30.28,10.0,East,4.6,-,N/A,,Overcast,100,2013-04-21 03:21:00
10:41 PM,35.6,24.8,65,30.28,10.0,East,3.5,-,N/A,,Overcast,90,2013-04-21 03:41:00
11:01 PM,35.6,24.8,65,30.28,10.0,East,3.5,-,N/A,,Overcast,80,2013-04-21 04:01:00
11:21 PM,35.6,24.8,65,30.29,10.0,East,2.3,-,N/A,,Overcast,90,2013-04-21 04:21:00
11:41 PM,35.6,26.6,70,30.29,10.0,SE,2.3,-,N/A,,Overcast,130,2013-04-21 04:41:00